User: anonymous   Login
Location: Bergnershof
(48.9468°N, 10.9431°E)
Time: 01:02:17
(UTC+00:00)
Language:

Cosmos 1354 Rocket - Orbit

View from above orbital plane
View from above orbital plane
View from above satellite
View from above satellite

Ground track
Ground track

The orbit data is extracted from the following two-line orbital elements,

1 13149U 82037B   21137.38698525 -.00000042  00000-0 -55149-5 0  9995
2 13149  74.0388 151.6766 0013081 359.5077   0.6060 14.35396508 42496
Epoch (UTC): 17 May 2021 09:17:15
Eccentricity: 0.0013081
inclination: 74.0388°
perigee height: 764 km
apogee height: 783 km
right ascension of ascending node: 151.6766°
argument of perigee: 359.5077°
revolutions per day: 14.35396508
mean anomaly at epoch: 0.6060°
orbit number at epoch: 4249

The dashed part of the orbit path shows where the satellite is in the earth's shadow,  

DLR